ORBCOMM FM19

Last updated on Sat Aug 15 2026 00:03:10 GMT+0000 (Coordinated Universal Time)

1 25415U 98046C 26226.57587972 .00000367 00000+0 16156-3 0 9999 2 25415 44.9950 325.9968 0005290 234.0631 140.3405 14.39590178465196
UTC large
Height (km)
Speed (km/s)
/
Latitude / Longitude
Inclination (degrees)
Orbital Period (minutes)
Azimuth
Elevation
Range (km)
Doppler Factor

Next 0 passes for location: London (51.5072 / 0.1276)

No passes found over London.
ORBCOMM FM19